www.pogodaiklimat.ru

Погода и климат >> Архив погоды >> Китай >> Гуанси-Чжуанский автономный район >> Хэчи


ПОГОДА в Хэчи

  • Прогноз погоды в Хэчи
  • Монитор погоды в Хэчи

АРХИВ ПОГОДЫ в Хэчи

Время (UTC), дата Ветер
(напр.,м/с)
 
Видим.   Явления Облачность Т
(С)
Тd
(С)
f
(%)
Тe
(С)
Тes
(С)
Комфортность P
(гПа)
Po
(гПа)
Тmin
(С)
Tmax
(С)
R
(мм)
R24
(мм)
S
(см)
06 16.08 В 2 6000 м мгла 3/3 600 м
[]
+35.5 +24.1 52 +47 +61 опасность
перегрева
999.3 970.4 +25.1
09 16.08 ЮВ 1 6000 м мгла 3/3 600 м
[]
+34.1 +24.1 56 +46 +51 опасность
перегрева
998.4 974.9
12 16.08 ЮВ 2 н/о мгла 3/3 600 м
[]
+30.9 +24.1 67 +43 +43 опасность
перегрева
1001.0 971.9
15 16.08 Ю 2 6000 м мгла н/о +28.9 +22.2 67 +38 +38 очень
душно
1003.3 979.3
18 16.08 Ю 1 6000 м дымка ?/? +27.2 +22.2 74 +35 +35 очень
душно
1003.2 974.3 +35.9
21 16.08 З 1 7000 м дымка н/о +26.0 +22.7 82 +34 +34 очень
душно
1003.8 979.6
00 17.08 З 1 6000 м дымка 3/3 600 м
[]
+26.3 +23.0 82 +35 +37 очень
душно
1005.0 975.7
03 17.08 Ю 1 6000 м мгла 5/5 600 м
[]
+30.7 +22.6 62 +40 +50 очень
душно
1004.9 981.0
06 17.08 В 2 6000 м мгла 9/9 600 м
[]
+32.3 +22.7 57 +42 +44 опасность
перегрева
1002.7 973.6 +25.1
09 17.08 В 2 6000 м мгла 1/1 600 м
[]
+34.2 +21.3 47 +42 +47 опасность
перегрева
1000.7 977.2
12 17.08 В 2 6000 м мгла 1/1 600 м
[]
+32.1 +22.2 56 +41 +41 опасность
перегрева
1001.9 972.8
15 17.08 Ю 1 н/о дымка н/о +29.0 +23.4 72 +39 +39 очень
душно
1004.1 980.1
18 17.08 З 1 6000 м дымка ?/? +26.9 +23.8 83 +37 +37 очень
душно
1003.9 974.8 +35.1
21 17.08 З 1 6000 м дымка н/о +25.7 +23.9 90 +35 +35 очень
душно
1003.7 979.4
00 18.08 З 2 6000 м дымка 9/9 600 м
[]
+26.7 +24.5 88 +38 +38 очень
душно
1005.0 975.8
03 18.08 ЮВ 2 н/о мгла 4/4 600 м
[]
+31.1 +24.0 66 +43 +53 опасность
перегрева
1005.0 981.1
06 18.08 Ю 1 6000 м мгла 3/3 600 м
[]
+34.7 +23.1 51 +45 +61 опасность
перегрева
1002.2 973.2 +25.5
09 18.08 В 4 6000 м мгла ясно +34.9 +22.6 49 +44 +48 опасность
перегрева
1000.4 976.9
12 18.08 В 2 6000 м мгла ясно +32.6 +22.7 56 +42 +42 опасность
перегрева
1001.4 972.3
15 18.08 З 2 6000 м дымка н/о +28.8 +23.7 74 +39 +39 очень
душно
1003.7 979.7
18 18.08 З 2 6000 м дымка ?/? +27.4 +23.8 81 +38 +38 очень
душно
1003.9 974.9 +35.9
21 18.08 З 2 6000 м дымка н/о +26.3 +24.2 88 +37 +37 очень
душно
1003.4 979.2
00 19.08 З 1 6000 м дымка 5/5 600 м
[]
+27.3 +24.4 84 +38 +40 очень
душно
1003.9 974.8
03 19.08 В 2 н/о мгла 5/5 600 м
[]
+32.4 +24.2 62 +45 +53 опасность
перегрева
1004.7 980.9
06 19.08 З 1 6000 м мгла 8/8 600 м
[]
+35.3 +23.6 51 +46 +51 опасность
перегрева
1002.3 973.4 +25.9
09 19.08 В 3 н/о мгла 6/6 600 м
[]
+32.5 +21.7 53 +41 +43 опасность
перегрева
1001.8 978.1
12 19.08 В 2 н/о мгла 6/6 600 м
[]
+31.1 +24.0 66 +43 +43 опасность
перегрева
1002.9 973.8
15 19.08 штиль 0 н/о дымка н/о +28.8 +23.7 74 +39 +39 очень
душно
1004.4 980.4
18 19.08 штиль 0 н/о дымка ?/? +27.4 +24.1 82 +38 +38 очень
душно
1004.0 975.0 +36.2
21 19.08 ЮВ 2 н/о дымка н/о +27.0 +24.3 85 +38 +38 очень
душно
1004.7 980.5
00 20.08 З 2 3100 м дымка 4/4 600 м
[]
+25.2 +24.3 95 +35 +37 очень
душно
1005.6 976.3 36
03 20.08 В 2 6000 м мгла 1/1 600 м
[]
+31.0 +24.6 69 +44 +59 опасность
перегрева
1006.4 982.5
06 20.08 С 1 7000 м мгла 3/3 600 м
[]
+34.0 +23.4 54 +45 +61 опасность
перегрева
1003.6 974.6 +24.1
09 20.08 Ю 2 7000 м мгла 1/1 600 м
[]
+34.7 +23.4 52 +45 +50 опасность
перегрева
1002.0 978.5
12 20.08 З 2 н/о мгла ясно +31.1 +24.7 69 +44 +44 опасность
перегрева
1003.0 973.8
15 20.08 З 1 н/о дымка н/о +28.1 +24.3 80 +39 +39 очень
душно
1004.5 980.4
18 20.08 З 1 6000 м дымка ?/? +26.7 +24.0 85 +37 +37 очень
душно
1004.4 975.3 +35.3
21 20.08 З 3 н/о дымка н/о +25.6 +23.7 89 +35 +35 очень
душно
1004.8 980.5
00 21.08 З 1 н/о дымка 8/8 600 м
[]
+26.4 +24.3 88 +37 +37 очень
душно
1006.8 977.5
03 21.08 ЮВ 1 н/о дымка 6/6 600 м
[]
+31.3 +24.7 68 +44 +52 опасность
перегрева
1007.1 983.2
06 21.08 В 2 6000 м мгла 8/8 600 м
[]
+33.6 +24.5 59 +46 +50 опасность
перегрева
1004.6 975.5 +25.2
09 21.08 Ю 4 7000 м мгла 8/8 600 м
[]
+33.6 +22.1 51 +42 +43 опасность
перегрева
1002.6 979.0
12 21.08 ЮВ 3 6000 м мгла 8/8 600 м
[]
+32.0 +23.3 60 +43 +43 опасность
перегрева
1004.4 975.2
15 21.08 Ю 1 н/о дымка н/о +29.3 +24.4 75 +41 +41 опасность
перегрева
1005.9 981.9
18 21.08 СЗ 1 6000 м дымка ?/? +27.6 +24.4 83 +39 +39 очень
душно
1005.4 976.3 +35.0
21 21.08 З 2 6000 м дымка н/о +26.4 +23.9 86 +36 +36 очень
душно
1005.5 981.2
00 22.08 Ю 10
{20}
3300 м сильн. дождь 10/10 300 м
[]
+25.2 +21.1 78 +32 +32 очень
душно
1008.4 979.0 8
03 22.08 З 3
{20}
2700 м дождь 10/10 300 м
[]
+22.6 +21.6 94 +30 +30 очень
душно
1011.3 986.6
06 22.08 З 1 7000 м в посл. час дождь 9/9 600 м
[]
+25.2 +22.3 84 +33 +35 очень
душно
1008.0 978.4 +21.3 18
09 22.08 В 1 8000 м 1/1 600 м
[]
+28.8 +22.5 69 +38 +43 очень
душно
1006.2 982.1
12 22.08 З 2 7000 м 4/4 600 м
[]
+26.5 +23.4 83 +36 +36 очень
душно
1007.5 977.9
15 22.08 З 1 н/о дымка н/о +24.7 +23.1 91 +33 +33 очень
душно
1009.0 984.5
18 22.08 штиль 0 6000 м дымка ?/? +24.3 +23.3 94 +33 +33 очень
душно
1008.7 979.0 +29.4
21 22.08 штиль 0 н/о дымка н/о +23.9 +22.9 94 +32 +32 очень
душно
1008.4 983.9
00 23.08 З 1 6000 м дымка 8/8 600 м
[]
+24.5 +23.3 93 +33 +33 очень
душно
1009.9 980.2
03 23.08 СЗ 1 8000 м 6/6 600 м
[]
+29.9 +21.8 62 +38 +46 очень
душно
1009.9 985.8

 

Местоположение метеостанции Хэчи (Гуанси-Чжуанский автономный район, Китай): широта 24.70 долгота 108.05 высота над уровнем моря 214 м.

В архиве по умолчанию представлена погода в Хэчи за последнюю неделю. Архивные данные за месяц целиком и за предыдущие месяцы, начиная с января 2011 года, Вы можете получить, выбрав интересующий диапазон дат из раскрывающегося списка и нажав кнопку "Ввод!".


*Определитесь, кто Вы:
робот инопланетянин человек

Внимание! Время в таблицах - всемирное. Для получения местного времени необходимо прибавить поправку, которая равна 8 ч.

Смотрите также архив погоды в соседних городах и на ближайших метеорологических станциях:

Погода в Душане (Гуйчжоу, Китай) (135 км)
Погода в Лючжоу (Гуанси-Чжуанский автономный район, Китай) (142 км)
Погода в Рунцзяне (Гуйчжоу, Китай) (149 км)
Погода в Люодяне (Гуйчжоу, Китай) (153 км)
Погода в Байсэ (Гуанси-Чжуанский автономный район, Китай) (172 км)
Погода в Наньнине (Гуанси-Чжуанский автономный район, Китай) (231 км)
Погода в Гуйлине (Гуанси-Чжуанский автономный район, Китай) (237 км)
Погода в Тундао (Хунань, Китай) (239 км)
Погода в Гуйяне (Гуйчжоу, Китай) (247 км)
Погода в Гуйпине (Гуанси-Чжуанский автономный район, Китай) (252 км)

Пояснения к столбцам:

Ветер - указаны скорость ветра в м/с - средняя за 10 мин, порывы в срок и между сроками (в фигурных скобках) и направление, откуда дует ветер: С - северный, СВ - северо-восточный, В - восточный, ЮВ - юго-восточный, Ю - южный, ЮЗ - юго-западный, З - западный, СЗ - северо-западный.
Видимость - горизонтальная дальность видимости в метрах или километрах. При видимости от 1 до 10 км при отсутствии осадков обычно наблюдается дымка, при ухудшении видимости до 1 км и менее - туман. В сухую погоду видимость может ухудшаться дымом, пылью или мглою.
Явления - указаны атмосферные явления, наблюдавшиеся в срок или в последний час перед сроком; фигурными скобками обозначены явления, наблюдавшиеся между сроками (за 1-3 часа до срока); квадратными скобками обозначены град или гололедные отложения с указанием их диаметра в мм.
Облачность - указаны через наклонную черту общая и нижняя облачность в баллах и высота нижней границы облаков в метрах; квадратными скобками обозначены формы облаков: Ci - перистые, Cs - перисто-слоистые, Cc - перисто-кучевые, Ac - высококучевые, As - высокослоистые, Sc - слоисто-кучевые, Ns - слоисто-дождевые, Cu - кучевые, Cb - кучево-дождевые. Подробнее классификацию облаков см. в Атласе облаков (PDF).
T - Температура воздуха - температура, измеренная на высоте 2 м над землей.
Td - Температура точки росы - температура, при понижении до которой содержащийся в воздухе водяной пар достигнет насыщения.
f - Относительная влажность воздуха - влажноcть воздуха, измеренная на высоте 2 м над землей.
Te - Эффективная температура - температура, которую ощущает одетый по сезону человек в тени. Характеристика душности погоды. При расчете учитывается влияние влажности воздуха и скорости ветра на теплоощущения человека.
Tes - Эффективная температура на солнце - температура, которую ощущает человек, с поправкой на солнечный нагрев. Характеристика знойности погоды. Зависит от высоты солнца над горизонтом, облачности и скорости ветра. Ночью, в пасмурную погоду, а также при ветре 12 м/с и более поправка равна нулю.
P - Атмосферное давление - приведенное к уровню моря атмосферное давление.
Po - Атмосферное давление - измеренное на уровне метеостанции атмосферное давление.
Tmin - Минимальная температура - минимум температуры воздуха на высоте 2 м над землей.
Tmax - Максимальная температура - максимум температуры воздуха на высоте 2 м над землей.
R - Количество осадков - Количество выпавших осадков за период времени, мм. При наведении курсора мыши на число - период времени, за который выпало указанное количество осадков.
R24 - Количество осадков - Количество выпавших осадков за 24 часа, мм.
S - Снежный покров - Высота снежного покрова, см. При наведении курсора мыши на число - состояние снежного покрова и степень покрытия местности в баллах.